TimeHST,TemperatureF,Dew PointF,Humidity,Sea Level PressureIn,VisibilityMPH,Wind Direction,Wind SpeedMPH,Gust SpeedMPH,PrecipitationIn,Events,Conditions,WindDirDegrees,DateUTC
12:57 AM,73.4,72.0,95,29.98,10.0,South,3.5,-,N/A,,Clear,170,2012-12-04 10:57:00
1:57 AM,73.4,71.1,92,29.97,10.0,Calm,Calm,-,N/A,,Mostly Cloudy,0,2012-12-04 11:57:00
2:57 AM,73.4,71.6,94,29.95,10.0,Calm,Calm,-,N/A,,Mostly Cloudy,0,2012-12-04 12:57:00
3:57 AM,73.8,70.2,88,29.94,10.0,Calm,Calm,-,N/A,,Scattered Clouds,0,2012-12-04 13:57:00
4:57 AM,74.1,70.0,87,29.95,10.0,Calm,Calm,-,N/A,,Clear,0,2012-12-04 14:57:00
5:57 AM,73.4,69.8,88,29.96,10.0,Calm,Calm,-,N/A,,Clear,0,2012-12-04 15:57:00
6:57 AM,73.4,70.9,92,29.98,10.0,Calm,Calm,-,N/A,,Clear,0,2012-12-04 16:57:00
7:57 AM,73.4,70.9,92,29.99,10.0,Calm,Calm,-,N/A,,Clear,0,2012-12-04 17:57:00
8:57 AM,77.0,73.0,88,30.02,10.0,WNW,3.5,-,N/A,,Partly Cloudy,290,2012-12-04 18:57:00
9:57 AM,77.0,73.0,88,30.02,10.0,South,3.5,-,N/A,,Partly Cloudy,190,2012-12-04 19:57:00
10:57 AM,77.0,72.0,84,30.02,10.0,Variable,6.9,-,N/A,,Partly Cloudy,0,2012-12-04 20:57:00
11:57 AM,80.6,71.1,73,30.00,10.0,East,6.9,-,N/A,,Scattered Clouds,100,2012-12-04 21:57:00
12:57 PM,80.6,71.1,73,29.98,10.0,ESE,6.9,-,N/A,,Overcast,120,2012-12-04 22:57:00
1:57 PM,80.6,73.0,78,29.96,10.0,ESE,9.2,-,N/A,Rain,Light Rain,120,2012-12-04 23:57:00
2:57 PM,80.6,75.0,83,29.95,10.0,ESE,5.8,-,N/A,,Mostly Cloudy,110,2012-12-05 00:57:00
3:57 PM,80.6,73.9,80,29.96,10.0,ESE,8.1,-,N/A,Rain,Light Rain,110,2012-12-05 01:57:00
4:57 PM,80.6,73.9,80,29.97,10.0,ESE,8.1,-,N/A,,Mostly Cloudy,110,2012-12-05 02:57:00
5:57 PM,80.6,73.9,80,29.97,10.0,ESE,5.8,-,N/A,,Mostly Cloudy,110,2012-12-05 03:57:00
6:57 PM,77.0,73.0,88,29.98,10.0,ESE,5.8,-,N/A,,Mostly Cloudy,110,2012-12-05 04:57:00
7:33 PM,77.0,73.4,89,30.01,6.2,Variable,3.5,-,N/A,Rain-Thunderstorm,Thunderstorms and Rain,0,2012-12-05 05:33:00
7:57 PM,77.0,73.0,88,30.00,10.0,SE,3.5,-,N/A,Rain-Thunderstorm,Thunderstorms and Rain,130,2012-12-05 05:57:00
8:04 PM,77.0,75.2,94,30.02,6.2,ESE,3.5,-,N/A,Rain-Thunderstorm,Thunderstorms and Rain,110,2012-12-05 06:04:00
8:49 PM,77.0,75.2,94,30.03,6.2,Calm,Calm,-,N/A,Rain-Thunderstorm,Thunderstorms and Rain,0,2012-12-05 06:49:00
8:57 PM,77.0,75.0,94,30.02,10.0,Variable,3.5,-,N/A,Rain-Thunderstorm,Thunderstorms and Rain,0,2012-12-05 06:57:00
9:05 PM,75.2,75.2,100,30.04,6.2,ESE,4.6,-,N/A,,Mostly Cloudy,120,2012-12-05 07:05:00
9:57 PM,75.2,75.0,99,30.04,10.0,ESE,3.5,-,N/A,,Mostly Cloudy,110,2012-12-05 07:57:00
10:04 PM,75.2,75.2,100,30.06,6.2,Calm,Calm,-,N/A,,Mostly Cloudy,0,2012-12-05 08:04:00
10:57 PM,75.2,75.0,99,30.06,10.0,West,4.6,-,N/A,,Mostly Cloudy,260,2012-12-05 08:57:00
11:32 PM,75.2,75.2,100,30.06,6.2,Calm,Calm,-,N/A,,Overcast,0,2012-12-05 09:32:00
11:42 PM,75.2,75.2,100,30.06,6.2,East,5.8,-,N/A,Rain-Thunderstorm,Thunderstorms and Rain,90,2012-12-05 09:42:00